Location: Orlando
(28.5380°N, 81.3790°W)
Time: 12:09:05
(UTC-04:00)

ISS - Visible Passes

Search period start: 15 October 2019 00:00
Search period end: 25 October 2019 00:00
Orbit: 411 x 421 km, 51.6° (Epoch: 15 October)

Date Brightness Start Highest point End Pass type
(mag) Time Alt. Az. Time Alt. Az. Time Alt. Az.
20 Oct -0.8 06:58:30 10° S 07:00:58 19° SE 07:03:26 10° E visible
22 Oct -3.6 06:57:00 10° SW 07:00:21 78° SE 07:03:43 10° NE visible
23 Oct -2.2 06:09:09 12° SSW 06:11:52 34° SE 06:14:57 10° ENE visible
24 Oct -0.9 05:23:57 17° ESE 05:23:57 17° ESE 05:25:43 10° E visible
24 Oct -2.7 06:57:02 10° WSW 06:59:57 27° NW 07:02:53 10° NNE visible
